STARLINK-35517, 66244

Orbit data source: Space-Track

STARLINK-35517, 66244 is a payload satellite owned by SpaceX/Seattle (US) in LEO that was launched on Wed, 29 Oct 2025 UTC via an FALCON 9 launch vehicle from the Air Force Eastern Test Range (AFETR). Payload-class satellites include a variety of spacecraft equipped with specific instruments for various scientific and technological missions. These include communications satellites like Starlink; space stations such as the ISS; scientific satellites like the Hubble; Earth observation satellites from companies like Planet Labs, Umbra, and HawkEye 360; GPS; miniature CubeSats for education and research; and military/defense satellites.

Loading next visibility...
Identifier
66244, 2025-245L
Orbit
LEO
Country
Flag of USUS
Related business
Manufacturer
SpaceX/Seattle
Mission
Operational Commercial Communications
Bus & Motor
STARLINK V2MO, Unknown motor
Mass
575 kg wet, ~530 kg dry
Launch date (UTC)
2025-10-29 (8 months ago)
Launch vehicle
FALCON 9
Launch site
Air Force Eastern Test Range (AFETR)
Object type
Payload
Rocket body
Debris
Shape & HBR
Box + 2 Pan, 17.7 m
Radar Cross Section
36.964 m², Large (>1 m²)

Expand to show TLE details & history
Last TLE update: 16 hours ago

TLE from 16 hours ago
0 STARLINK-35517
1 66244U 25245L   26171.18232561  .00017002  00000-0  58459-3 0  9999
2 66244  53.1601 167.4664 0001617 102.9421 257.1760 15.30213476 36748
Epoch: 2026-06-20T04:22Z
TLE epoch observation values (Epoch: 2026-06-20T04:22:32.932Z)
Latitude
-0.00007°
Longitude
-166.57149°
Altitude
476.321 km
Speed
7.629 km/s
True Right ascension
11h 09m 51s
True Declination
0° 00' 00"
Sunlit
Object was in daylight at epoch
Visualization orbit readout
Latitude
Unknown
Longitude
Unknown
Altitude
Unknown
Speed
Unknown
Apparent Right ascension
Unknown
Apparent Declination
Unknown
Sunlit
N/A
Visualization observer readout
Local Sidereal Time
07:16:56
Azimuth
Unknown
Elevation
Unknown
Doppler factor
Unknown
Orbital elements
Apogee altitude
476.539 km
Perigee altitude
474.323 km
Semi-major axis
6,853.568 km
Eccentricity
0.00016
Inclination
53.1601°
RAAN
167.4664°
Arg. of periapsis
102.9421°
True anomaly
257.15793°
Mean anomaly
257.176°
Eccentric anomaly
257.16697°
Mean motion
3.82532 °/min
Orbital period
94.11 mins
BSTAR
0.00058459
Loading maneuver chart data...
Computing Atmospheric mass density...
Loading historical data...
Loading historical data...
Loading historical data...
Loading historical data...
Loading historical data...
Loading historical data...
Loading historical data...

Documentation

Showing up to 5 results
|